Regional Weather Roundup
Issued by NWS Tiyan, Guam

Home | Current Version | Previous Version | Text Only | Print | Product List | Glossary On
Versions: 1 2 3 4 5 6 7 8 9 10 11 12 13 14 15 16 17 18 19 20 21 22 23 24 25 26 27 28 29 30 31 32 33 34 35 36 37 38 39 40 41 42 43 44 45 46 47 48 49 50
109
ASGM40 PGUM 250312
RWRGUM
WEATHER ROUNDUP FOR THE MARIANAS
NATIONAL WEATHER SERVICE TIYAN GU
100 PM CHST SAT MAR 25 2017

GUZ001>004-250400-
MARIANA ISLANDS-

CITY           SKY/WX    TMP DP  RH WIND       PRES   REMARKS
GUAM AIRPORT   MOSUNNY   88  73  62 E10G18    29.92F HX  96
ANDERSEN AFB   MOSUNNY   84  73  70 E13       29.93F HX  91
ROTA AIRPORT   MOSUNNY   82  73  74 E14       29.93F
TINIAN AP      MOSUNNY   86  75  70 E12       29.92F HX  95
SAIPAN AP      MOSUNNY   84  73  70 SE9G17    29.93F HX  91

$$





USA.gov is the U.S. government's official web portal to all federal, state and local government web resources and services.